Hourly Weather Roundup
Issued by NWS Central Illinois

Home | Current Version | Previous Version | Text Only | Print | Product List | Glossary On
Versions: 1 2 3 4 5 6 7 8 9 10 11 12 13 14 15 16 17 18 19 20 21 22 23 24 25 26 27 28 29 30 31 32 33 34 35 36 37 38 39 40 41 42 43 44 45 46 47 48 49 50
000
NZUS43 KILX 231710
HWRILX

AREA WEATHER ROUNDUP
NATIONAL WEATHER SERVICE, LINCOLN IL
1200 PM CDT SAT JUL 23 2016


CITY           SKY/WX    TMP DP  RH WIND       PRES   REMARKS
BLOOMINGTON    MOSUNNY   86  75  69 S7        30.02F HX  95
CHAMPAIGN      MOSUNNY   85  76  74 SW6       30.02S HX  94
DANVILLE       CLOUDY    84  76  76 SW6       30.00S HX  93
DECATUR        SUNNY     88  74  63 S9        30.01S HX  96
EFFINGHAM      SUNNY     87  77  72 E3        30.03S HX  99
FLORA          PTSUNNY   87  78  73 SE5       30.01F HX  99
GALESBURG      MOSUNNY   86  78  75 S8        29.99S HX  99
JACKSONVILLE   SUNNY     87  77  71 SE6       29.99S HX  98
LACON          MOSUNNY   87  76  69 SW3       29.98F HX  97
LAWRENCEVILLE  PTSUNNY   85  76  74 CALM      30.01F HX  94
LITCHFIELD     SUNNY     86  74  68 S6        30.01S HX  94
$$


CITY           SKY/WX    TMP DP  RH WIND       PRES   REMARKS
LINCOLN        SUNNY     88  78  72 S5        29.99F HX 100
MACOMB         MOSUNNY   88  78  73 S6        30.00F HX 101
MATTOON        MOSUNNY   86  74  67 SE6       30.02S HX  94
MT CARMEL AP   PTSUNNY   85  76  73 CALM      30.00F HX  94
OLNEY-NOBLE AP PTSUNNY   82  77  83 CALM      30.01F HAZE    HX  91
PARIS          PTSUNNY   86  77  75 CALM      30.03R HX  98
PEORIA         MOSUNNY   87  77  72 CALM      29.99S HX  99
PONTIAC        MOSUNNY   88  77  69 SW5       30.01S HX  99
RANTOUL        NOT AVBL
ROBINSON       NOT AVBL
SPRINGFIELD    SUNNY     89  75  63 SE6       30.00S HX  99
TAYLORVILLE    SUNNY     86  76  73 NW3       30.01S HX  96
$$

...REGIONAL REPORTS...


CITY           SKY/WX    TMP DP  RH WIND       PRES   REMARKS
CHICAGO O`HARE CLOUDY    88  72  58 W7        29.98F HX  94
KANKAKEE       NOT AVBL
MOLINE         CLOUDY    88  78  72 SE8       29.96S HX 101
MOUNT STERLING MOSUNNY   88  78  73 SE6       29.99R HX 101
MOUNT VERNON   MOSUNNY   90  73  58 SE6       30.01S HX  98
PITTSFIELD     SUNNY     88  80  76 SE5       30.00S HX 103
QUINCY         CLOUDY    90  76  63 S5        29.98R HX 101
ROCKFORD       CLOUDY    87  77  72 S8        29.99F HX  99
$$


CITY           SKY/WX    TMP DP  RH WIND       PRES   REMARKS
BURLINGTON     CLOUDY    87  80  79 SE7       29.96S HX 103
CEDAR RAPIDS   CLOUDY    86  81  85 S10       29.92F HX 102
DES MOINES     PTSUNNY   88  77  69 S12       29.86S HX 100
KIRKSVILLE     CLOUDY    91  77  63 S12       29.96R HX 104
OTTUMWA        MOSUNNY   90  77  65 S8        29.92S HX 103
ST LOUIS       MOSUNNY   91  71  51 E8        29.99F HX  97
$$


CITY           SKY/WX    TMP DP  RH WIND       PRES   REMARKS
TERRE HAUTE    SUNNY     87  72  60 CALM      30.02S HX  93
EVANSVILLE     CLOUDY    87  75  67 CALM      30.00S HX  96
INDIANAPOLIS   PTSUNNY   87  72  60 W7        30.03S HX  93
LAFAYETTE      CLOUDY    86  76  71 VRB6      30.01S HX  96
MADISON        CLOUDY    83  76  79 S6        29.98F HX  91
MILWAUKEE      CLOUDY    85  75  72 SE7       29.99R HX  93
$$






USA.gov is the U.S. government's official web portal to all federal, state and local government web resources and services.